Location: Fort Worth, Tx
(32.7431°N, 97.3695°W)
Time: 05:32:01
(UTC-05:00)

Altair - Pass Details

Date: 06 October 2023
Orbit: 1501 x 1682 km, 47.2° (Epoch: 06 December)

Event Time Altitude Azimuth Distance (km) Brightness Sun altitude
Rises 00:07:25 0° 185° (S) 4,646 - -48.9°
Reaches altitude 10° 00:11:19 10° 171° (S) 3,688 - -49.5°
Maximum altitude 00:17:57 22° 125° (SE) 2,900 - -50.6°
Drops below altitude 10° 00:24:43 10° 79° (E) 3,795 - -51.7°
Sets 00:28:46 0° 65° (ENE) 4,816 - -52.4°
